Location: Kolin
(50.0330°N, 15.2000°E)
Time: 07:22:59
(UTC+02:00)

Gurwin Techsat 1B - Pass Details

Date: 22 August 2022
Orbit: 811 x 814 km, 98.8° (Epoch: 25 September)

Event Time Altitude Azimuth Distance (km) Brightness Sun altitude
Rises 04:04:18 0° 13° (NNE) 3,351 12.8 -16.5°
Reaches altitude 10° 04:06:40 10° 12° (NNE) 2,415 11.9 -16.2°
Maximum altitude 04:11:59 73° 289° (WNW) 854 8.6 -15.6°
Enters shadow 04:15:36 21° 208° (SSW) 1,759 9.8 -15.1°
